Weather History for Kimball, NE

Change the Weather History Date:

Saturday, February 18, 2012

  Actual Average (KSNY) Record (KSNY)
Temperature  
Mean Temperature 31 °F 32 °F  
Max Temperature 42 °F 46 °F 70 °F (2004)
Min Temperature 20 °F 19 °F -13 °F (1993)
Degree Days  
Heating Degree Days 34 33  
Month to date heating degree days 615  
Since 1 July heating degree days 4272  
Cooling Degree Days 0 0  
Month to date cooling degree days 0  
Year to date cooling degree days 0  
Moisture  
Dew Point 21 °F    
Average Humidity 74    
Maximum Humidity 95    
Minimum Humidity 32    
Precipitation  
Precipitation 0.00 in 0.01 in 0.41 in (2010)
Month to date precipitation 0.16  
Year to date precipitation 0.36  
Sea Level Pressure  
Sea Level Pressure 30.00 in    
Wind  
Wind Speed 9 mph (SW)    
Max Wind Speed 15 mph    
Max Gust Speed 20 mph    
Visibility 9 miles    
Events      
T = Trace of Precipitation, MM = Missing Value Source: NWS Daily Summary

Daily Weather History Graph

Daily Weather History Graph

Search for Another Location

Airport:

Trip Planner

Search our weather history database for the weather conditions in past years. The results will help you decide how hot, cold, wet, or windy it might be!

Date:

Astronomy

Feb. 18, 2012 Rise Set
Actual Time 7:45 AM CST 6:32 PM CST
Civil Twilight 7:17 AM CST 7:00 PM CST
Nautical Twilight 6:45 AM CST 7:32 PM CST
Astronomical Twilight 6:13 AM CST 8:04 PM CST
Moon 5:28 AM CST (2/18) 3:30 PM CST (2/18)
Length of Visible Light 11h 42m
Length of Day
10h 46m
Waning Crescent, 11% of the Moon is Illuminated
Feb 18
Waning Crescent
Feb 21
New
Feb 29
First Quarter
Mar 8
Full
Mar 14
Last Quarter

Hourly Weather History & Observations

Time (CST) Temp. Windchill Dew Point Humidity Pressure Visibility Wind Dir Wind Speed Gust Speed Precip Events Conditions
12:15 AM 24.6 °F 17.7 °F 23.0 °F 94% 30.12 in 10.0 mi SW 5.8 mph - N/A   Mostly Cloudy
12:35 AM 24.4 °F 15.6 °F 22.6 °F 93% 30.12 in 10.0 mi WSW 8.1 mph - N/A   Overcast
12:55 AM 23.9 °F 15.8 °F 21.9 °F 92% 30.11 in 10.0 mi WSW 6.9 mph - N/A   Mostly Cloudy
1:15 AM 23.0 °F 14.7 °F 21.0 °F 92% 30.11 in 10.0 mi WSW 6.9 mph - N/A   Scattered Clouds
1:35 AM 23.0 °F 13.9 °F 20.8 °F 91% 30.10 in 10.0 mi WSW 8.1 mph - N/A   Overcast
1:55 AM 23.0 °F 13.9 °F 20.5 °F 90% 30.10 in 10.0 mi West 8.1 mph - N/A   Overcast
2:15 AM 22.8 °F 14.5 °F 20.1 °F 89% 30.09 in 10.0 mi WSW 6.9 mph - N/A   Mostly Cloudy
2:35 AM 21.9 °F 14.5 °F 19.2 °F 89% 30.09 in 10.0 mi SW 5.8 mph - N/A   Scattered Clouds
2:55 AM 21.9 °F 17.2 °F 19.4 °F 90% 30.08 in 10.0 mi WSW 3.5 mph - N/A   Mostly Cloudy
3:15 AM 21.7 °F 14.3 °F 19.0 °F 89% 30.08 in 10.0 mi SW 5.8 mph - N/A   Scattered Clouds
3:35 AM 21.4 °F 12.8 °F 18.5 °F 89% 30.08 in 10.0 mi WSW 6.9 mph - N/A   Mostly Cloudy
3:55 AM 20.3 °F 15.4 °F 17.6 °F 89% 30.07 in 10.0 mi SSW 3.5 mph - N/A   Scattered Clouds
4:15 AM 21.6 °F 14.0 °F 18.7 °F 89% 30.07 in 10.0 mi SW 5.8 mph - N/A   Mostly Cloudy
4:35 AM 23.5 °F 16.4 °F 21.7 °F 93% 30.07 in 10.0 mi SW 5.8 mph - N/A   Mostly Cloudy
4:55 AM 25.3 °F 16.7 °F 23.9 °F 94% 30.06 in 7.0 mi WSW 8.1 mph - N/A   Overcast
5:15 AM 25.2 °F 15.1 °F 23.4 °F 93% 30.06 in 7.0 mi West 10.4 mph - N/A   Overcast
5:35 AM 24.8 °F 14.0 °F 23.0 °F 93% 30.05 in 7.0 mi West 11.5 mph - N/A   Overcast
5:55 AM 23.9 °F 13.5 °F 22.1 °F 93% 30.05 in 7.0 mi West 10.4 mph - N/A   Mostly Cloudy
6:15 AM 23.0 °F 13.1 °F 21.2 °F 93% 30.05 in 7.0 mi West 9.2 mph - N/A   Clear
6:35 AM 22.5 °F 13.2 °F 20.7 °F 93% 30.04 in 7.0 mi West 8.1 mph - N/A   Clear
6:55 AM 21.6 °F 12.1 °F 19.9 °F 93% 30.04 in 7.0 mi West 8.1 mph - N/A   Clear
7:15 AM 21.6 °F 10.6 °F 19.9 °F 93% 30.03 in 7.0 mi West 10.4 mph - N/A   Clear
7:35 AM 21.2 °F 12.6 °F 19.6 °F 93% 30.03 in 5.0 mi West 6.9 mph - N/A   Clear
7:55 AM 21.6 °F 10.6 °F 20.3 °F 95% 30.03 in 3.0 mi WSW 10.4 mph - N/A   Clear
8:15 AM 22.5 °F 12.4 °F 21.2 °F 95% 30.03 in 4.0 mi WSW 9.2 mph - N/A   Scattered Clouds
8:35 AM 23.0 °F 12.4 °F 21.7 °F 95% 30.03 in 3.0 mi WSW 10.4 mph - N/A   Scattered Clouds
8:55 AM 24.1 °F 12.0 °F 22.8 °F 95% 30.03 in 4.0 mi SW 13.8 mph - N/A   Scattered Clouds
9:15 AM 25.7 °F 15.1 °F 24.1 °F 94% 30.03 in 3.0 mi WSW 11.5 mph - N/A   Scattered Clouds
9:35 AM 27.1 °F 16.9 °F 25.0 °F 92% 30.02 in 4.0 mi WSW 11.5 mph - N/A   Clear
9:55 AM 28.8 °F 19.5 °F 25.9 °F 89% 30.02 in 5.0 mi WSW 10.4 mph - N/A   Clear
10:15 AM 30.4 °F 20.5 °F 26.8 °F 86% 30.02 in 7.0 mi WSW 12.7 mph - N/A   Clear
10:35 AM 30.9 °F 21.7 °F 27.0 °F 85% 30.02 in 7.0 mi WSW 11.5 mph - N/A   Clear
10:55 AM 32.0 °F 23.0 °F 27.1 °F 82% 30.01 in 10.0 mi SW 11.5 mph - N/A   Clear
11:15 AM 33.6 °F 24.1 °F 27.3 °F 78% 30.00 in 10.0 mi SW 13.8 mph - N/A   Clear
11:35 AM 34.3 °F 24.6 °F 26.4 °F 73% 29.99 in 10.0 mi SW 15.0 mph - N/A   Clear
11:55 AM 35.6 °F 26.6 °F 25.9 °F 68% 29.99 in 10.0 mi SW 13.8 mph - N/A   Clear
12:15 PM 36.5 °F 27.8 °F 25.3 °F 64% 29.98 in 10.0 mi SSW 13.8 mph 18.4 mph N/A   Clear
12:35 PM 37.0 °F 28.5 °F 24.1 °F 59% 29.97 in 10.0 mi SSW 13.8 mph - N/A   Clear
12:55 PM 37.9 °F 30.5 °F 23.5 °F 56% 29.96 in 10.0 mi SSW 11.5 mph - N/A   Clear
1:15 PM 38.7 °F 31.8 °F 21.9 °F 51% 29.94 in 10.0 mi SSW 10.4 mph - N/A   Clear
1:35 PM 39.6 °F 32.1 °F 21.2 °F 48% 29.93 in 10.0 mi SSW 12.7 mph - N/A   Clear
1:55 PM 40.5 °F 33.2 °F 19.9 °F 44% 29.92 in 10.0 mi SSW 12.7 mph 18.4 mph N/A   Clear
2:15 PM 41.0 °F 33.9 °F 19.2 °F 42% 29.91 in 10.0 mi South 12.7 mph 17.3 mph N/A   Clear
2:35 PM 41.9 °F 34.6 °F 18.7 °F 39% 29.90 in 10.0 mi SSW 13.8 mph 19.6 mph N/A   Clear
2:55 PM 41.9 °F 35.0 °F 17.8 °F 38% 29.89 in 10.0 mi SW 12.7 mph 18.4 mph N/A   Clear
3:15 PM 42.1 °F 35.7 °F 16.5 °F 36% 29.89 in 10.0 mi SSW 11.5 mph - N/A   Clear
3:35 PM 42.8 °F 35.8 °F 15.6 °F 33% 29.89 in 10.0 mi SSW 13.8 mph 18.4 mph N/A   Clear
3:55 PM 42.6 °F 35.6 °F 16.2 °F 34% 29.88 in 10.0 mi SW 13.8 mph - N/A   Clear
4:15 PM 42.6 °F 36.8 °F 14.5 °F 32% 29.87 in 10.0 mi SSW 10.4 mph - N/A   Clear
4:35 PM 42.4 °F 36.1 °F 15.4 °F 34% 29.87 in 10.0 mi SSW 11.5 mph 16.1 mph N/A   Clear
4:55 PM 41.9 °F 35.9 °F 15.8 °F 35% 29.87 in 10.0 mi SSW 10.4 mph - N/A   Clear
5:15 PM 41.5 °F 35.0 °F 15.8 °F 35% 29.87 in 10.0 mi SW 11.5 mph - N/A   Clear
5:35 PM 40.6 °F 34.3 °F 15.8 °F 37% 29.87 in 10.0 mi SW 10.4 mph - N/A   Clear
5:55 PM 38.7 °F 32.4 °F 17.2 °F 42% 29.87 in 10.0 mi SSW 9.2 mph - N/A   Clear
6:15 PM 35.1 °F 29.3 °F 18.5 °F 51% 29.87 in 10.0 mi SSW 6.9 mph - N/A   Clear
6:35 PM 31.1 °F 24.5 °F 18.5 °F 60% 29.87 in 10.0 mi South 6.9 mph - N/A   Clear
6:55 PM 28.6 °F 20.7 °F 18.5 °F 66% 29.87 in 10.0 mi SSW 8.1 mph - N/A   Clear
7:15 PM 28.0 °F 20.8 °F 18.9 °F 68% 29.87 in 10.0 mi South 6.9 mph - N/A   Clear
7:35 PM 26.1 °F 17.6 °F 19.0 °F 75% 29.87 in 10.0 mi South 8.1 mph - N/A   Clear
7:55 PM 28.8 °F 20.9 °F 19.4 °F 68% 29.87 in 10.0 mi SSW 8.1 mph - N/A   Clear
8:15 PM 27.7 °F 21.3 °F 20.1 °F 73% 29.87 in 10.0 mi SW 5.8 mph - N/A   Clear
8:35 PM 26.8 °F 21.4 °F 19.6 °F 74% 29.87 in 10.0 mi SW 4.6 mph - N/A   Clear
8:55 PM 26.8 °F 18.5 °F 20.3 °F 77% 29.87 in 10.0 mi SSW 8.1 mph - N/A   Clear
9:15 PM 27.5 °F 20.2 °F 20.5 °F 75% 29.87 in 10.0 mi SSW 6.9 mph - N/A   Clear
9:35 PM 28.8 °F 20.9 °F 20.7 °F 72% 29.87 in 10.0 mi SSW 8.1 mph - N/A   Clear
9:55 PM 26.8 °F 18.5 °F 20.1 °F 76% 29.87 in 10.0 mi SSW 8.1 mph - N/A   Clear
10:15 PM 26.8 °F 19.3 °F 19.4 °F 74% 29.87 in 10.0 mi SSW 6.9 mph - N/A   Clear
10:35 PM 25.9 °F 19.2 °F 19.0 °F 75% 29.87 in 10.0 mi SSW 5.8 mph - N/A   Clear
10:55 PM 24.8 °F 16.9 °F 18.5 °F 77% 29.87 in 10.0 mi SSW 6.9 mph - N/A   Clear
11:15 PM 24.4 °F 17.5 °F 18.5 °F 78% 29.86 in 10.0 mi SW 5.8 mph - N/A   Clear
11:35 PM 23.2 °F 15.0 °F 18.5 °F 82% 29.86 in 10.0 mi WSW 6.9 mph - N/A   Clear
11:55 PM 23.9 °F 15.8 °F 18.9 °F 81% 29.85 in 10.0 mi WSW 6.9 mph - N/A   Clear